Vertical_Velocity
-2 -3 -2 -5 -8 -7 -8 -4 -5 -1 -4 -4 0 2 -4 -1 -2 9 2 8 -4 3 3 -5 -3 6 12 3 -10 4 -3 -3 -1 1 4 4 3 4 -5 1 1 -1 -0 2 1 -0 0
-0 -3 -2 -3 -6 -6 -5 -6 -1 -2 -3 -4 1 3 -1 -4 -4 3 -3 11 13 -6 -8 -5 -0 12 -1 -4 15 2 -4 -1 0 1 7 1 2 -2 -0 5 -1 3 0 2 1 1 -0
-2 -2 -2 -4 -5 -4 -5 -7 -3 2 -4 -2 2 3 1 -5 1 -6 3 8 16 -6 -2 2 3 2 -4 8 10 -2 2 2 1 3 5 4 -0 1 2 -1 -1 -1 -3 1 -0 2 2
-2 -0 -4 -4 -4 -4 -6 -3 -6 3 0 -5 -0 -1 -1 -1 -9 -2 7 6 2 4 -2 -7 -3 6 4 11 6 4 -0 -1 -1 1 -2 -4 1 3 -4 2 2 -0 -3 -0 1 1 0
-3 -2 -2 -2 -4 -4 -4 -3 -3 -6 8 -4 1 -6 -3 -4 -4 -3 4 1 8 -3 -0 -9 -1 13 4 9 1 -4 2 3 1 -1 -2 -3 -4 -1 -2 -3 -5 -3 2 0 -1 -1 -1
-3 -2 -2 -3 -3 -3 -4 -4 -1 -2 0 5 -7 -1 1 -4 -4 -1 1 -3 2 4 0 -2 11 -2 -1 20 2 -4 0 1 2 -0 -1 -3 -1 -1 -1 -3 -2 -0 1 -1 -2 -0 -2
-4 -2 -1 -1 -2 -3 -4 -5 -3 -1 -5 3 3 -2 5 -5 -12 -13 7 -8 4 -4 -0 -1 -11 2 -0 2 -1 -2 -2 0 -2 2 3 2 -0 -1 1 0 1 0 1 -2 -4 -3 -3
-2 -2 -2 -1 -2 -2 -3 -4 -4 -3 -2 -6 1 -1 -3 5 -8 -2 -15 16 -4 0 -8 -1 5 9 -1 -3 -1 -1 1 -2 1 -0 2 -1 1 1 1 2 0 -1 -1 -0 -1 -1 -3
-1 -0 -2 -1 -1 -2 -3 -2 -3 -4 -3 -2 -4 -0 2 -4 -8 -13 -7 2 -3 -9 -1 -7 -3 -2 -1 -4 3 -0 -1 -4 -3 -2 -2 0 1 2 0 -2 -3 -1 -2 -2 -3 -6 -4
-1 -1 -0 -0 -1 -1 -2 -3 -2 -3 -5 -3 -2 0 -4 1 1 -2 -0 -0 -3 0 -6 -6 -3 -5 1 -6 1 0 -1 -0 -2 -1 -5 -2 -5 -5 -3 1 -1 -1 -3 -3 -0 -2 -2
-2 -1 1 -1 -2 -1 -1 -2 -2 -2 -2 -4 -3 -5 -1 -2 3 -0 -7 -2 0 3 -2 1 1 -1 0 3 2 -2 3 -0 -2 -1 -0 4 -3 -3 -5 -4 -3 -3 -2 -4 -3 -4 -4
-1 -1 0 -0 -1 -2 -1 0 -1 -2 -2 -3 -2 -3 -2 -3 4 0 -1 3 2 6 -13 -1 0 -1 -3 -0 3 3 0 3 4 -1 -0 -3 -0 -3 -5 -4 -5 -4 -3 -3 -1 -2 -5
-0 -1 -2 1 -1 -1 -2 -2 0 -2 -3 -3 -2 -1 -2 -3 -4 0 -1 2 -3 -8 3 2 2 -2 -5 -5 -1 -2 2 -2 -4 0 -1 0 -2 -1 -1 -2 -2 -2 -2 -3 -4 -2 -1
-1 1 -1 0 -1 1 0 -1 -2 0 -2 -3 -3 -1 1 -2 -1 1 3 5 4 3 -4 -7 -2 0 2 2 -5 -0 -1 -0 -1 1 -0 1 1 2 -0 -1 -1 -1 -2 -2 -4 -2 -2
-1 0 0 -1 2 -1 1 -1 -2 -1 -1 -1 -1 -4 -4 -3 -3 -3 -2 -2 -3 1 -1 1 -1 -2 -3 -5 0 -1 -2 -1 0 1 -1 -3 -2 -2 -2 -2 -2 -3 -2 -2 -5 -5 -3
-1 -1 -0 -0 2 1 -0 -1 -1 -0 -1 -0 -3 -1 -1 -4 -3 -5 -7 1 -0 -2 -3 -1 0 0 -3 -1 1 1 1 1 0 -0 0 -1 -1 -2 -1 -2 -3 -2 -4 -2 -3 -3 -3
-1 -1 -1 1 -1 2 -2 0 -0 -0 1 -1 -1 0 0 1 -3 -2 -3 2 -2 -1 -0 -2 -3 -0 1 -1 -2 -1 0 -3 -5 -4 -4 -3 -1 0 1 1 1 -0 -1 -2 -3 -3 -3
0 -1 -1 -1 1 2 1 -1 -1 0 2 4 -0 -2 2 2 -1 -1 -1 0 1 1 -1 -2 0 2 0 1 1 1 -1 0 0 1 -1 -3 -2 -3 -3 -3 -3 -3 -2 -2 -1 -2 -2
-1 -1 -3 1 2 0 3 -0 -0 -0 1 -2 2 0 1 -0 2 2 3 -0 -0 -2 -1 2 -0 -1 -1 -0 1 1 1 -0 -2 -2 -0 -0 -0 -2 -5 -5 -4 -5 -4 -2 -3 -3 -1
2 -1 -1 -0 -0 3 2 3 0 -1 -1 -0 1 1 0 2 0 1 1 3 1 -1 0 -0 -1 1 2 2 1 -1 -2 -0 -1 -1 -2 -2 -2 -1 0 -0 -0 -2 -2 -1 -0 -0 -1
-2 0 1 -1 -1 -2 2 1 1 1 1 -1 -1 -1 1 1 2 1 -1 -1 -0 1 -0 -3 -1 -1 -2 -3 -2 -2 -0 2 2 1 -0 0 -1 0 0 -3 -1 0 0 -2 -1 -4 -0
-2 -2 -1 -0 -0 -1 1 -0 2 -0 -1 1 -0 0 1 1 -1 2 3 1 3 1 -1 3 2 1 -1 -0 1 -1 -1 0 -0 -0 1 2 2 0 -0 -1 -0 1 -2 -1 -0 0 2
-2 -2 -3 -3 -2 -0 -1 -1 -0 -0 -1 0 -1 -2 -1 -0 2 0 1 2 1 1 2 0 -1 1 2 1 0 1 1 -0 0 -1 -1 -2 -3 0 8 0 -0 1 -1 -1 -1 -2 -1
-2 -1 -3 -2 -2 -1 1 -2 1 0 -2 -0 -1 0 -0 -1 -2 -0 -0 1 2 2 1 1 1 1 -0 2 -0 -1 -0 2 1 -2 -1 1 -1 -2 5 -0 4 -2 1 2 4 1 -2
-2 -1 -2 -2 -1 -1 0 0 -0 3 2 -0 0 -2 -2 -1 1 -2 -1 -1 -1 -1 -1 -0 1 2 3 -0 2 1 -3 -0 2 2 -2 -1 -0 -4 -2 1 4 4 -2 1 -1 -0 2
1 -0 -3 -3 -2 -1 0 1 1 -0 1 3 3 2 1 -0 0 0 -0 -0 1 0 -1 -0 -3 -3 0 2 1 1 -0 -1 1 3 1 0 -1 -1 -1 -8 -9 -4 3 -0 3 -0 -2
-2 0 -1 -3 -2 -2 -1 2 1 1 -1 -1 -2 -3 -1 0 -2 -2 -1 1 -2 1 0 0 -1 0 -1 -1 1 1 2 -1 -2 -5 5 1 -3 -3 -2 3 6 -2 -5 -0 -2 3 -3
-0 -1 1 -2 -6 -3 -3 -3 -3 -1 -1 3 -1 -1 2 -0 -10 3 -1 1 1 -1 -1 1 -0 -4 -1 -3 -1 -0 4 0 0 1 -2 1 -3 5 -0 1 1 3 1 -7 -2 2 1
2 0 1 0 2 1 -1 -4 -4 -4 -4 -1 -3 -2 0 0 -3 1 -4 0 0 0 1 -2 3 -1 -2 -4 -2 1 -1 5 5 2 -7 -4 -6 -1 1 17 -11 -7 0 -0 0 4 1
Height
5766 5757 5746 5735 5722 5708 5694 5679 5666 5651 5638 5624 5612 5600 5594 5589 5586 5580 5575 5572 5568 5565 5571 5581 5590 5598 5614 5625 5637 5646 5656 5667 5680 5692 5704 5713 5724 5733 5741 5750 5756 5763 5769 5775 5780 5785 5789
5768 5759 5748 5738 5726 5713 5700 5685 5672 5657 5645 5631 5618 5608 5602 5596 5594 5586 5584 5582 5577 5578 5582 5589 5597 5606 5620 5632 5641 5648 5658 5670 5681 5692 5703 5712 5721 5730 5740 5747 5753 5760 5766 5771 5776 5780 5785
5771 5761 5752 5742 5731 5718 5705 5692 5678 5664 5652 5640 5628 5618 5610 5606 5601 5597 5594 5592 5585 5587 5595 5601 5609 5618 5628 5639 5645 5653 5662 5670 5680 5690 5701 5710 5719 5730 5738 5744 5750 5757 5763 5769 5774 5777 5782
5774 5765 5755 5746 5735 5724 5712 5699 5687 5674 5661 5650 5639 5629 5622 5618 5614 5610 5607 5603 5599 5598 5605 5612 5620 5629 5636 5643 5650 5656 5663 5672 5681 5689 5699 5709 5719 5726 5735 5744 5749 5754 5760 5765 5770 5774 5779
5778 5769 5760 5751 5741 5730 5719 5707 5694 5683 5671 5660 5651 5642 5632 5631 5628 5624 5621 5615 5614 5614 5619 5624 5630 5636 5644 5651 5657 5663 5668 5674 5682 5691 5700 5709 5717 5726 5733 5740 5746 5752 5759 5763 5768 5771 5775
5783 5773 5764 5755 5747 5737 5726 5715 5702 5691 5681 5670 5661 5653 5644 5642 5641 5639 5636 5633 5630 5629 5632 5637 5643 5649 5653 5658 5663 5668 5672 5678 5684 5692 5702 5710 5717 5725 5732 5738 5745 5750 5756 5760 5764 5768 5770
5787 5778 5769 5760 5752 5744 5733 5723 5711 5700 5689 5680 5672 5663 5657 5654 5655 5652 5651 5649 5653 5649 5651 5653 5655 5660 5658 5662 5666 5671 5676 5681 5686 5694 5702 5709 5718 5724 5730 5736 5742 5747 5751 5756 5760 5763 5766
5791 5783 5774 5766 5758 5750 5741 5731 5721 5710 5700 5690 5680 5674 5668 5665 5665 5662 5662 5666 5664 5664 5664 5665 5667 5668 5669 5670 5673 5676 5680 5685 5689 5695 5702 5710 5716 5723 5729 5735 5740 5744 5748 5752 5756 5758 5761
5795 5787 5779 5772 5764 5757 5749 5740 5731 5721 5710 5701 5691 5683 5678 5674 5672 5670 5671 5673 5673 5673 5673 5673 5673 5673 5674 5676 5680 5682 5685 5688 5693 5697 5703 5709 5716 5721 5728 5733 5738 5742 5746 5749 5753 5754 5757
5798 5791 5784 5777 5770 5763 5755 5747 5740 5731 5722 5712 5703 5694 5688 5684 5681 5678 5678 5678 5678 5677 5678 5679 5678 5679 5680 5681 5684 5686 5688 5692 5695 5698 5704 5709 5715 5721 5726 5731 5736 5740 5743 5746 5748 5750 5751
5800 5795 5788 5781 5775 5769 5762 5754 5747 5740 5732 5724 5716 5708 5699 5693 5690 5688 5687 5683 5683 5682 5682 5682 5681 5682 5682 5684 5689 5691 5691 5694 5696 5701 5705 5710 5715 5721 5726 5731 5735 5738 5740 5742 5745 5746 5747
5803 5797 5791 5785 5779 5773 5767 5761 5754 5747 5740 5733 5726 5719 5711 5703 5699 5697 5695 5693 5692 5690 5686 5687 5687 5686 5687 5688 5690 5693 5696 5697 5700 5703 5706 5710 5714 5720 5725 5730 5734 5737 5739 5740 5741 5741 5742
5805 5799 5794 5788 5783 5777 5771 5765 5760 5754 5748 5742 5735 5728 5722 5715 5709 5705 5704 5703 5701 5699 5696 5694 5692 5692 5692 5693 5694 5697 5699 5701 5704 5707 5709 5712 5716 5720 5725 5730 5732 5734 5736 5737 5738 5738 5738
5807 5802 5796 5790 5785 5780 5775 5770 5764 5759 5755 5750 5744 5738 5733 5726 5720 5716 5713 5713 5709 5703 5701 5702 5700 5698 5698 5699 5701 5702 5703 5705 5708 5711 5712 5715 5719 5721 5725 5728 5730 5732 5734 5735 5734 5734 5734
5807 5803 5798 5794 5787 5783 5778 5773 5768 5764 5759 5754 5750 5746 5740 5735 5730 5724 5721 5720 5714 5710 5707 5705 5706 5706 5706 5706 5707 5707 5709 5710 5712 5714 5717 5719 5722 5724 5726 5728 5731 5731 5733 5733 5733 5732 5731
5806 5803 5799 5795 5790 5785 5781 5776 5771 5766 5762 5758 5753 5750 5746 5743 5738 5733 5729 5727 5722 5717 5713 5711 5710 5710 5711 5711 5713 5713 5715 5716 5717 5718 5719 5722 5724 5725 5727 5728 5729 5729 5731 5731 5730 5730 5729
5804 5802 5798 5795 5791 5786 5782 5778 5773 5769 5764 5761 5757 5754 5750 5747 5744 5741 5736 5734 5729 5725 5721 5719 5716 5715 5715 5716 5717 5718 5719 5719 5720 5722 5723 5723 5725 5727 5726 5727 5728 5729 5729 5730 5729 5729 5728
5800 5799 5797 5794 5791 5787 5783 5779 5775 5770 5766 5763 5759 5757 5754 5750 5748 5744 5743 5738 5736 5733 5731 5728 5725 5722 5720 5720 5720 5720 5721 5722 5722 5724 5726 5727 5728 5728 5729 5729 5729 5729 5729 5729 5729 5729 5726
5796 5795 5794 5791 5789 5786 5782 5780 5776 5772 5769 5764 5761 5758 5755 5753 5751 5748 5745 5743 5741 5738 5735 5733 5732 5730 5728 5725 5725 5724 5725 5725 5726 5727 5727 5728 5729 5729 5729 5731 5729 5729 5728 5727 5727 5726 5725
5792 5792 5790 5789 5786 5784 5781 5778 5776 5773 5769 5766 5763 5760 5757 5754 5752 5749 5747 5745 5743 5741 5740 5738 5736 5734 5733 5732 5730 5729 5728 5727 5727 5727 5727 5728 5727 5727 5728 5727 5727 5726 5725 5724 5723 5722 5721
5787 5787 5786 5785 5783 5781 5778 5777 5774 5772 5768 5766 5763 5760 5757 5754 5752 5750 5748 5746 5744 5742 5740 5740 5738 5737 5736 5735 5734 5733 5731 5730 5729 5729 5728 5728 5727 5726 5725 5724 5723 5723 5722 5720 5720 5718 5717
5780 5780 5779 5779 5778 5777 5774 5772 5770 5768 5766 5764 5761 5758 5756 5753 5751 5749 5747 5745 5743 5742 5741 5738 5737 5736 5736 5735 5734 5733 5733 5730 5729 5729 5728 5727 5727 5725 5724 5722 5721 5720 5718 5716 5716 5714 5711
5771 5772 5772 5771 5771 5770 5769 5767 5765 5764 5762 5761 5759 5756 5755 5752 5749 5747 5746 5745 5742 5739 5738 5736 5736 5734 5733 5733 5732 5730 5729 5729 5729 5726 5725 5724 5722 5722 5723 5717 5716 5717 5715 5712 5711 5709 5706
5762 5763 5764 5764 5763 5762 5761 5760 5758 5757 5757 5755 5754 5753 5751 5749 5747 5744 5742 5741 5739 5738 5736 5734 5732 5732 5731 5728 5728 5728 5726 5726 5725 5724 5722 5721 5719 5717 5717 5714 5714 5711 5709 5706 5704 5701 5700
5751 5752 5754 5754 5754 5754 5753 5752 5751 5749 5748 5748 5748 5747 5745 5742 5741 5741 5738 5737 5735 5734 5734 5732 5731 5729 5726 5724 5724 5722 5722 5723 5720 5720 5718 5717 5715 5713 5712 5711 5711 5705 5702 5700 5699 5697 5693
5738 5741 5743 5743 5744 5744 5743 5743 5742 5740 5740 5740 5739 5738 5738 5737 5735 5733 5732 5730 5729 5729 5728 5728 5728 5726 5725 5723 5720 5719 5718 5716 5715 5714 5711 5709 5707 5706 5702 5703 5703 5697 5696 5693 5691 5689 5686
5725 5728 5730 5732 5733 5734 5734 5734 5733 5732 5732 5732 5731 5730 5729 5727 5726 5725 5725 5723 5721 5721 5720 5719 5719 5719 5719 5719 5717 5714 5712 5711 5711 5708 5705 5704 5702 5700 5696 5693 5696 5690 5687 5686 5682 5683 5677
5712 5715 5717 5718 5721 5723 5724 5724 5724 5723 5721 5719 5718 5717 5717 5716 5716 5715 5715 5715 5713 5713 5714 5713 5712 5711 5710 5710 5710 5708 5707 5705 5703 5702 5701 5697 5695 5694 5691 5686 5684 5680 5676 5676 5672 5668 5667
5699 5702 5704 5707 5708 5710 5713 5713 5713 5712 5712 5710 5708 5706 5706 5705 5704 5704 5704 5704 5704 5704 5704 5704 5704 5702 5702 5701 5700 5698 5697 5696 5696 5695 5692 5689 5687 5682 5683 5679 5672 5666 5663 5664 5661 5659 5657